Find Starlink 35972

NORAD ID: 66638 Int'l Des: 2025-271 Owner: SPXS Country: US Constellation: starlink operational
LEOCIRCULAR

Live Position

Loading 3D Globe...

About Starlink 35972

Description loading...

Upcoming Passes

Passes for default location (London). Set your location on the main map for personalized predictions.

Altitude History

Loading altitude history...

Two-Line Element Set

1 66638U 25271X 26103.37572860 .00008942 00000-0 31369-3 0 9994
2 66638 53.1616 339.0776 0001237 82.8649 277.2493 15.30198828 22876
Epoch: Apr 13, 2026 • Age: 23 hours

Current Status

Altitude 477.4 km
Velocity 7.63 km/s
Sub-Earth Point -6.98°S, 159.36°W
Launch Date Nov 23, 2025
Age 0.3 years
Type internet

Technical Details

Classification Payload
Mass 575.00 kg
Dry Mass 530.00 kg
Total Mass 575.00 kg
Length 0.30 m
Diameter 4.10 m
Span 29.00 m
Shape Box + pan
Manufacturer SPXS
Bus Type Starlink V2MO
Phase Status In Orbit
Owner/State SPXS/US

Most Searched